200 serials | magic lines v.3.6 registration code

Date Name Success Rate
2011-09-08 10:56:11 FontLook v3.1 Registration Code 51%
2011-09-08 11:42:43 Nic O'Matic 1.6 Registration Code 50%
2011-09-08 11:42:43 Nic O'Matic v1.6 Registration Code 55%
2011-09-08 12:54:14 TimeSlips 10.5 enterprise - with registration code! 0%
2012-12-13 05:12:00 Registration Code For PDFZilla Giveaway 0%
2012-12-13 05:12:00 Registration code:-826510-16101-266644 46%
2009-10-22 23:48:45 Magic Lines 2.4 87%
2009-10-17 06:18:30 Agentix Magic Lines V2.98.061 38%
2009-10-22 23:27:16 Agentix Magic Lines 2.98.061 82%
2011-09-08 10:02:19 Agentix Magic Lines 2.98.061 0%
2011-09-08 10:02:19 Agentix Magic Lines v2.98.061 0%
2011-09-08 10:31:59 Crayola Magic 3-D Code 0%
2011-09-08 11:27:56 Macro Magic V2.1a Code 0%
2011-09-08 13:00:10 Support Magic v3.0 Code 0%
2011-09-08 12:28:18 Partition Magic v3.03 for Win95 Code 0%
2011-09-08 11:28:23 Magic Mask for Adobe PhotoShop Code 0%
2011-09-08 10:42:09 DAS Registration 1.5.2 66%
2011-09-08 10:42:09 DAS Registration For CW5 0%
2011-09-08 10:42:09 DAS Registration v1.5.2 0%
2009-10-17 06:27:02 Lazarus Registration DLL V1.0 59%
2009-10-22 23:48:48 MemoriesonTV Registration 0%
2009-10-22 23:49:42 Registration Wizard 40%
2011-09-08 10:06:47 AnetHelpTool v4.02 Registration 52%
2011-09-08 10:22:13 ByeLines Registration 60%
2011-09-08 10:57:42 Ftgate Registration 63%
2011-09-08 11:15:16 Infodex v2.10 Registration 0%
2011-09-08 11:25:08 Lazarus Registration DLL v1.0 0%
2011-09-08 11:27:46 Mac Opener v3.0 Registration 57%
2011-09-08 11:32:59 mIRC v4.5+ Registration 60%
2011-09-08 11:32:59 mIRC v4.52 Registration 60%
2011-09-08 12:37:02 Quant v2.0 Registration 0%
2011-09-08 12:41:14 Registration Suite 1.0 60%
2011-09-08 12:41:14 Registration Suite v1.0 60%
2011-09-08 12:41:14 Registration Wizard Pro 5.01 46%
2011-09-08 12:41:14 Registration Wizard Pro v5.01 60%
2011-09-08 13:18:59 WinHacker 95 v2.02 Registration 57%
2012-12-13 05:12:00 Registration Key : 526EFEF086E09600449E667EA2DAE8E2E6D642BC 83%
2009-10-22 23:27:21 Ardamax Keylogger 2.9 Registration 56%
2009-10-22 23:48:49 Microsoft Registration Hacker - 39%
2009-10-22 23:49:57 SoudForge ALL (No Registration Requiered) 0%
2009-10-22 23:50:26 Valve's Registration Armor Key-Gen 60%
2011-09-08 10:21:42 Browserola v1.01 Temp. Registration 0%
2011-09-08 11:31:51 Microsoft Registration Hacker 0%
2011-09-08 11:31:51 Microsoft Registration Hacker - 0%
2011-09-08 11:31:51 Microsoft Registration HackerMSREGHACK 0%
2011-09-08 11:32:07 Microstation v5.xx.xx & 95 FULL REGISTRATION 48%
2011-09-08 12:34:57 PolyTrans V1.2E Registration Activator CD-Key 62%
2011-09-08 12:34:57 PolyView v2.9b16 Registration 0%
2011-09-08 12:54:09 Time Registration (German) 1.10 0%
2011-09-08 12:59:30 Super Collapse Registration 100%
2011-09-08 13:23:15 Yipe! II for Windows Registration #154 0%
2012-12-13 08:49:53 Softwarenetz Time Registration v1.10 0%
2012-12-13 08:49:56 Softwarenetz Time Registration v1.14 0%
2012-12-13 15:34:10 Valve's Registration Armor Key-Gen 0%
2009-10-22 23:48:17 Internet Download Manager Registration 50%
2011-09-08 10:25:56 Cheyenne Bitware V4.0 Registration Number 60%
2011-09-08 11:31:51 Microsoft Registration Hacker MSREGHACK 80%
2011-09-08 11:31:51 Microsoft Visual Basic 5 registration cd key 72%
2012-12-12 08:07:32 Download avast 5.0.667 Antivirus registration 0%
2012-12-13 05:12:00 Registration key for x-3gp-video-converter-38540 54%
2012-12-13 13:12:40 Total Image Converter Registration Key 57%
2011-09-08 11:30:16 MediaBlaze 98 v1.01 Win95/NT User: delphic Registration 0%
2009-10-22 23:49:02 Norton Internet Security 2005 Registration Guide 0%
2011-09-08 09:58:40 Acoustica Mixcraft v1.10 Build 15 Registration Info by MaBi 60%
2012-12-12 19:40:26 Microsoft Visual Basic 2008 Express Edition Registration key 38%
2009-10-17 06:19:09 AVS Lines V2.0 17%
2009-10-17 06:19:11 AVS Lines V2.0 25%
2009-10-22 23:27:28 AVS Lines 2.0 0%
2009-10-22 23:44:49 Bio Lines 1.0 0%
2009-10-22 23:49:00 New Lines 2.0 0%
2009-10-22 23:50:39 WV Lines 20-Jan 0%
2011-09-08 09:45:58 3D Lines v1.0 0%
2011-09-08 09:45:58 3D Lines v1.1 0%
2011-09-08 10:19:57 Bio Lines 1.0 0%
2011-09-08 10:19:57 Bio Lines v1.0 0%
2011-09-08 10:19:57 Bio Lines v1.1 0%
2011-09-08 10:45:36 DX Lines 1.00.3 0%
2011-09-08 10:45:39 DX Lines v1.00.3 0%
2011-09-08 11:26:04 Lines 98 4.0 0%
2011-09-08 11:26:04 Lines 98 v4.0 0%
2011-09-08 11:26:04 Lines'98 v2.1 0%
2011-09-08 11:42:26 New Lines 1.0 0%
2011-09-08 11:42:28 New Lines v1.0 0%
2011-09-08 13:20:52 WV Lines 1.01 0%
2011-09-08 13:20:52 WV Lines 20-Jan 0%
2011-09-08 13:20:52 WV Lines v1.01 0%
2011-09-08 13:23:45 Zig Zag Lines 2.01 0%
2011-09-08 13:23:45 Zig Zag Lines v2.01 0%
2011-09-08 13:23:45 Zig-zag Lines 2.01 0%
2011-09-08 13:23:45 Zig-zag Lines v2.01 0%
2012-12-12 17:36:31 Lines-7.v1.0 0%
2009-10-17 06:18:26 Advanced Lines V2.1 13%
2009-10-17 06:20:49 Crystal Lines II V1.0 27%
2009-10-17 06:20:49 Crystal Lines V1.01 15%
2009-10-17 06:20:49 Crystal Lines V1.02 20%
2009-10-17 06:20:49 Crystal Lines V1.10 11%
2009-10-17 06:27:02 Lines Deluxe V1.0-CSS 0%
2009-10-17 07:20:01 2M Bubble Lines V1.0a 0%
2009-10-23 07:01:17 2M Bubble Lines 1.0a 0%
2009-10-23 07:01:23 3D Lines And Blocks 1.0 0%
2009-10-22 23:27:18 Allure Lines 1.0 0%
2009-10-22 23:45:56 Crystal Lines 1.02 0%
2009-10-22 23:45:56 Crystal Lines 1.10 0%
2009-10-22 23:45:56 Crystal Lines II 1.0 0%
2009-10-22 23:48:37 Lines 2003 1.0 0%
2009-10-22 23:48:37 Lines Pack 1.07 0%
2009-10-22 23:50:37 Winrar 3.30 Adv. Lines 0%
2011-09-08 09:45:44 2M Bubble Lines v1.0a 0%
2011-09-08 09:45:58 3D Lines And Blocks v1.0 0%
2011-09-08 09:45:58 3D Lines v1.1 by LasH 0%
2011-09-08 10:05:17 Alhademic Lines 1.00 0%
2011-09-08 10:05:17 Alhademic Lines 1.10 0%
2011-09-08 10:05:17 Alhademic Lines v1.00 0%
2011-09-08 10:05:56 Allure Lines 1.0 0%
2011-09-08 10:05:56 Allure Lines v1.0 0%
2011-09-08 10:07:59 Arcade Lines 1.35 0%
2011-09-08 10:07:59 Arcade Lines v1.5 by ALG 0%
2011-09-08 10:32:33 Crystal Lines 1.01 0%
2011-09-08 10:32:33 Crystal Lines 1.10 0%
2011-09-08 10:32:33 Crystal Lines II 1.0 0%
2011-09-08 10:32:33 Crystal Lines v1.01 0%
2011-09-08 10:32:33 Crystal Lines v1.02 0%
2011-09-08 10:32:33 Crystal Lines v1.10 0%
2011-09-08 11:06:09 Harvest Lines 1.04 0%
2011-09-08 11:06:09 Harvest Lines v1.04 0%
2011-09-08 11:26:04 Lines 2003 1.0 0%
2011-09-08 11:26:04 Lines 2003 v1.0 by SnD 0%
2011-09-08 11:26:04 Lines 2003 v1.0.1 0%
2011-09-08 11:26:04 Lines Deluxe 1.0 0%
2011-09-08 11:26:04 Lines Deluxe v1.0 0%
2011-09-08 11:26:04 Lines Pack 1.07 0%
2011-09-08 11:26:04 Lines Pack v1.07 0%
2011-09-08 12:33:47 Pilot Lines 2.0 0%
2011-09-08 12:33:47 Pilot Lines 2.1 0%
2011-09-08 12:33:47 Pilot Lines v2 1 0%
2011-09-08 12:33:47 Pilot Lines v2.0 0%
2011-09-08 12:50:17 Sorcerer Lines 98 3.0 0%
2011-09-08 12:50:17 Sorcerer Lines 98 v3.0 0%
2011-09-08 12:58:05 Star Lines Inc 0%
2011-09-08 13:15:32 WAmp Lines 1.0 0%
2011-09-08 13:19:25 Winrar v3.30 adv. lines 0%
2011-09-08 13:23:45 Zig-zag Lines v2.01 by Sponge Uk 0%
2009-10-22 23:27:21 Arcade Lines Retail 1.5 0%
2011-09-08 10:05:56 Allure Lines v1.0 for PocketPC 0%
2011-09-08 10:07:59 Arcade Lines 1.5 Retail 0%
2011-09-08 10:07:59 Arcade Lines Retail 1.5 0%
2011-09-08 10:07:59 Arcade Lines Retail v1.5 0%
2011-09-08 10:07:59 Arcade Lines v1.5 RETAIL 0%
2011-09-08 11:27:02 Lobosoft Arcade Lines v1.53 0%
2011-09-08 12:37:00 Quadro Lines for Toy Box shell 1.0 0%
2011-09-08 12:37:00 Quadro Lines for Toy Box shell v1.0 0%
2011-09-08 12:50:17 Sorcerer Lines 98 v3.0 by BLiZZARD 0%
2011-09-08 12:50:54 Spb Lines v1.01 Build 2342 100%
2011-09-08 13:17:18 WildSnake Harvest Lines v1.04 0%
2012-12-12 11:45:10 Fibonacci Lines Analyzer 1.1 0%
2012-12-12 11:45:12 Fibonacci Lines Analyzer v3.0 100%
2009-10-17 06:32:24 Sobolsoft Join Multiple Lines Into One V7.0 0%
2011-09-08 12:37:00 Quadro Lines for Toy Box shell v1.0 by LasH 0%
2011-09-08 12:48:17 Skip2PBX Basic Edition 2.1 - 10 lines 0%
2009-10-17 06:32:24 Sobolsoft Remove Duplicate Lines And Words In Text Files V7.0 68%
2009-10-17 06:27:46 Magic Project Magic Picture Converter V1.2-CRD 0%
2009-10-22 23:49:20 PC-Magic Encrypted Magic Folders V6.09.1-CROSSFiRE 60%
2011-09-08 11:06:28 hen edit existing lines and add this: 1: set Path= existing ;e:SIPLUGSaretesoftw 0%
2011-09-08 11:06:28 hen edit existing lines and add this: 1: set Path= existing ;e:SIPLUGSaretesoftwareNatureF 0%
2009-10-17 06:27:46 Magic DVD Software Magic DVD Copier V4.4.0 0%
2009-10-17 06:29:59 PC-Magic Encrypted Magic Folders V6.09.1 20%
2011-09-08 11:28:21 Magic DVD Software - Magic DVD Copier 3 0%
2011-09-08 11:28:29 Magic Software Inc. - Magic DVD Copier 4.02 0%
2011-09-08 12:29:13 PC-Magic Encrypted Magic Folders v4.04.1 0%
2012-12-12 18:11:57 Magic DVD Software Magic DVD Ripper v5.5.1 0%
2012-12-12 18:11:57 Magic DVD Software Magic DVD Ripper v5.5.2 0%
2012-12-12 18:11:57 Magic DVD Software Magic DVD Ripper v6.0.0 0%
2012-12-12 18:12:00 Magic DVD Software Magic DVD Ripper v6.0.1 0%
2012-12-12 18:12:04 Magic DVD Software Magic DVD Ripper v6.0.2 0%
2012-12-12 18:12:09 Magic DVD Software Magic DVD Ripper v6.1.0 0%
2012-12-12 18:12:12 Magic DVD Software Magic DVD Ripper v7.0 0%
2012-12-12 18:12:15 Magic DVD Software Magic DVD Ripper v7.1.0 0%
2009-10-17 06:19:27 Bar Code Pro V6.02 48%
2009-10-17 06:20:25 Code Co-op V4.5c 39%
2009-10-17 06:20:25 Code VBA V2.0 41%
2009-10-17 06:20:25 CODE-VB V3.03 23%
2009-10-22 23:44:48 Bar Code 128 3.0 0%
2009-10-22 23:44:48 Bar Code 3 Of 9 2.7 0%
2009-10-22 23:44:48 Bar Code 3 Of 9 3.0b 0%
2009-10-22 23:44:48 Bar Code Pro V6.02 0%
2009-10-22 23:44:48 Bar Code Pro V6.11 0%
2009-10-22 23:45:53 Code Co-op 4.0h 27%
2009-10-22 23:45:53 Code Co-op 4.1 44%
2009-10-22 23:45:53 Code Co-op 4.1a 0%
2009-10-22 23:45:53 Code Co-op 4.2 0%
2011-09-08 10:18:52 Bar Code Pro UPC v1.0 mac 54%
2011-09-08 10:18:52 Bar Code 3 of 9 v3.0b 0%
2011-09-08 10:18:52 Bar Code Pro 6.02 0%
2011-09-08 10:18:52 Bar Code 3 of 9 v2.7 0%
2011-09-08 10:18:52 Bar Code 3 of 9 3.0b 0%
2011-09-08 10:18:48 Bar Code 128 v3.0 0%
2011-09-08 10:18:48 Bar Code 3 of 9 2.7 55%
2011-09-08 10:18:48 Bar Code 128 3.0 0%
2011-09-08 10:27:32 Code 55%
2011-09-08 10:27:32 Code co-op 3.1 0%